Total_Precipitation_Accumulation
0.00 0.00 0.02 0.01 0.01 0.03 0.03 0.03 0.02 0.01 0.01 0.02 0.02 0.02 0.02 0.01 0.00 0.00 0.01 0.01 0.01 0.02 0.03 0.04 0.04 0.04 0.03 0.03 0.03 0.02 0.01 0.00 0.01 0.01 0.01 0.02 0.03 0.05 0.08 0.07 0.17 0.14 0.06
0.00 0.00 0.01 0.01 0.02 0.04 0.06 0.06 0.04 0.03 0.01 0.01 0.01 0.02 0.02 0.01 0.01 0.00 0.00 0.01 0.01 0.01 0.02 0.03 0.03 0.02 0.01 0.02 0.02 0.01 0.01 0.00 0.01 0.01 0.01 0.01 0.03 0.05 0.08 0.07 0.19 0.12 0.04
0.00 0.00 0.01 0.01 0.01 0.03 0.05 0.06 0.06 0.05 0.02 0.01 0.02 0.04 0.07 0.03 0.01 0.01 0.01 0.01 0.01 0.01 0.01 0.02 0.02 0.01 0.01 0.01 0.01 0.01 0.01 0.01 0.01 0.02 0.09 0.10 0.03 0.05 0.07 0.06 0.06 0.03 0.02
0.00 0.00 0.00 0.01 0.01 0.02 0.03 0.05 0.07 0.07 0.03 0.03 0.05 0.07 0.08 0.05 0.02 0.01 0.01 0.01 0.01 0.00 0.01 0.01 0.02 0.01 0.00 0.00 0.00 0.00 0.00 0.01 0.01 0.03 0.21 0.21 0.09 0.06 0.07 0.06 0.04 0.03 0.03
0.00 0.00 0.01 0.01 0.01 0.02 0.02 0.03 0.07 0.10 0.07 0.06 0.08 0.10 0.08 0.07 0.04 0.03 0.02 0.03 0.02 0.01 0.01 0.01 0.01 0.01 0.00 0.00 0.00 0.00 0.00 0.01 0.01 0.05 0.13 0.15 0.19 0.12 0.10 0.14 0.13 0.10 0.06
0.00 0.00 0.00 0.02 0.02 0.03 0.02 0.02 0.05 0.10 0.09 0.07 0.09 0.12 0.10 0.11 0.13 0.08 0.04 0.05 0.05 0.03 0.01 0.01 0.01 0.01 0.01 0.01 0.00 0.00 0.00 0.01 0.02 0.04 0.05 0.08 0.23 0.24 0.19 0.30 0.32 0.26 0.19
0.00 0.00 0.00 0.02 0.02 0.02 0.02 0.03 0.04 0.05 0.06 0.05 0.06 0.05 0.05 0.08 0.15 0.12 0.08 0.06 0.05 0.04 0.02 0.01 0.01 0.01 0.01 0.01 0.01 0.01 0.01 0.01 0.02 0.06 0.04 0.06 0.14 0.14 0.22 0.43 0.56 0.52 0.42
0.00 0.00 0.00 0.01 0.02 0.01 0.01 0.02 0.04 0.04 0.03 0.02 0.01 0.01 0.02 0.03 0.04 0.07 0.08 0.07 0.05 0.02 0.02 0.02 0.02 0.02 0.02 0.03 0.03 0.03 0.03 0.02 0.02 0.03 0.03 0.07 0.10 0.13 0.32 0.55 0.65 0.67 0.62
0.00 0.00 0.00 0.01 0.01 0.01 0.01 0.01 0.02 0.03 0.02 0.02 0.01 0.01 0.01 0.02 0.03 0.05 0.06 0.06 0.06 0.05 0.04 0.03 0.03 0.03 0.03 0.03 0.02 0.02 0.03 0.02 0.02 0.04 0.05 0.14 0.25 0.30 0.53 0.71 0.70 0.72 0.72
0.00 0.00 0.00 0.01 0.02 0.02 0.02 0.02 0.03 0.03 0.02 0.02 0.01 0.01 0.01 0.02 0.02 0.04 0.05 0.05 0.08 0.09 0.07 0.05 0.04 0.04 0.05 0.04 0.03 0.03 0.03 0.02 0.01 0.02 0.05 0.10 0.22 0.40 0.60 0.72 0.78 0.79 0.78
0.01 0.01 0.01 0.02 0.02 0.03 0.02 0.02 0.03 0.03 0.03 0.03 0.04 0.04 0.04 0.03 0.06 0.12 0.11 0.16 0.15 0.17 0.19 0.17 0.15 0.15 0.13 0.08 0.09 0.14 0.09 0.03 0.02 0.02 0.03 0.12 0.23 0.42 0.63 0.71 0.77 0.85 0.87
0.01 0.01 0.02 0.02 0.02 0.02 0.02 0.03 0.03 0.03 0.05 0.05 0.07 0.14 0.18 0.22 0.18 0.09 0.17 0.30 0.41 0.54 0.50 0.46 0.48 0.38 0.30 0.24 0.55 0.79 0.21 0.09 0.09 0.08 0.08 0.14 0.31 0.60 0.75 0.71 0.71 0.78 0.80
0.01 0.01 0.01 0.02 0.03 0.03 0.03 0.03 0.04 0.05 0.09 0.10 0.11 0.19 0.25 0.24 0.16 0.09 0.16 0.34 0.50 0.64 0.60 0.78 0.88 0.69 0.69 0.69 0.82 0.87 0.36 0.29 0.24 0.19 0.21 0.28 0.44 0.72 0.91 0.75 0.68 0.68 0.68
0.03 0.04 0.03 0.03 0.04 0.05 0.06 0.06 0.07 0.07 0.09 0.10 0.15 0.18 0.26 0.31 0.26 0.26 0.34 0.42 0.54 0.64 0.83 0.82 0.97 0.94 0.88 0.86 0.87 0.80 0.63 0.56 0.48 0.48 0.60 0.47 0.47 0.67 0.94 0.82 0.68 0.65 0.69
0.08 0.11 0.11 0.10 0.11 0.12 0.12 0.13 0.11 0.12 0.15 0.16 0.22 0.31 0.40 0.48 0.52 0.59 0.57 0.60 0.57 0.70 0.89 0.96 0.94 1.11 1.20 1.12 0.96 0.86 0.81 0.74 0.63 0.69 0.78 0.68 0.56 0.62 0.80 0.85 0.78 0.75 0.75
0.20 0.26 0.31 0.33 0.36 0.39 0.39 0.38 0.37 0.37 0.42 0.45 0.49 0.55 0.64 0.73 0.89 0.99 0.95 0.93 0.84 0.89 1.02 1.12 1.12 1.49 1.42 1.37 1.09 0.98 0.92 0.86 0.78 0.69 0.70 0.80 0.64 0.51 0.57 0.72 0.82 0.82 0.81
0.46 0.49 0.59 0.67 0.74 0.80 0.78 0.78 0.80 0.85 0.85 0.85 0.87 0.93 1.00 1.03 1.22 1.31 1.32 1.23 1.24 1.22 1.33 1.33 1.45 1.64 1.38 1.32 1.16 1.12 1.03 0.90 0.77 0.74 0.70 0.78 0.73 0.57 0.42 0.47 0.64 0.74 0.83
0.77 0.84 1.03 1.15 1.22 1.26 1.26 1.26 1.30 1.24 1.17 1.10 1.16 1.29 1.32 1.38 1.55 1.64 1.51 1.42 1.66 1.70 1.68 1.73 1.77 1.76 1.63 1.53 1.32 1.07 0.97 0.93 0.67 0.60 0.53 0.53 0.59 0.50 0.45 0.50 0.57 0.63 0.77
1.35 1.51 1.67 1.73 1.72 1.69 1.71 1.74 1.79 1.74 1.57 1.44 1.46 1.51 1.57 1.54 1.62 1.75 1.59 1.64 1.84 1.87 1.86 1.72 1.95 1.89 1.83 1.72 1.39 1.10 0.85 0.69 0.58 0.46 0.39 0.32 0.36 0.38 0.38 0.41 0.41 0.45 0.65
1.71 1.94 2.05 2.07 2.24 2.34 2.34 2.24 2.20 2.02 1.80 1.74 1.77 1.82 1.79 1.72 1.74 1.86 1.73 1.79 1.93 1.97 1.90 1.91 1.97 1.98 1.85 1.75 1.33 1.00 0.81 0.57 0.47 0.41 0.32 0.30 0.26 0.23 0.24 0.32 0.43 0.37 0.49
2.01 2.24 2.44 2.88 3.03 2.95 2.76 2.46 2.28 2.16 2.10 2.01 1.89 1.77 1.75 1.76 1.84 1.99 1.86 1.95 1.95 1.81 1.80 1.96 2.05 1.85 1.64 1.76 1.49 0.94 0.61 0.44 0.39 0.34 0.33 0.34 0.28 0.23 0.21 0.30 0.38 0.43 0.46
2.15 2.44 2.47 2.42 2.55 2.62 2.54 2.44 2.40 2.43 2.19 1.98 1.87 1.72 1.62 1.67 1.77 1.79 1.79 1.75 1.75 1.75 1.74 1.78 1.95 1.75 1.42 1.59 1.51 1.22 0.72 0.53 0.45 0.33 0.34 0.33 0.28 0.27 0.28 0.32 0.41 0.53 0.51
1.57 1.76 1.87 1.90 1.82 1.80 1.87 2.02 2.09 2.14 1.96 1.79 1.71 1.66 1.56 1.54 1.50 1.51 1.52 1.64 1.83 1.87 1.73 1.69 1.72 1.64 1.36 1.35 1.45 1.46 1.00 0.70 0.53 0.28 0.28 0.31 0.39 0.45 0.43 0.48 0.50 0.57 0.59
1.32 1.41 1.43 1.46 1.45 1.48 1.59 1.69 1.70 1.69 1.60 1.58 1.59 1.50 1.45 1.40 1.36 1.34 1.37 1.41 1.45 1.52 1.50 1.38 1.45 1.53 1.48 1.28 1.36 1.38 1.26 1.11 0.92 0.54 0.37 0.37 0.47 0.52 0.55 0.51 0.48 0.49 0.63
0.97 1.08 1.17 1.25 1.25 1.27 1.29 1.34 1.38 1.37 1.38 1.40 1.34 1.28 1.22 1.19 1.25 1.25 1.20 1.18 1.14 1.18 1.28 1.29 1.33 1.34 1.36 1.30 1.27 1.30 1.29 1.27 1.26 1.08 0.72 0.66 0.64 0.53 0.55 0.53 0.49 0.52 0.67
0.88 0.98 1.05 1.10 1.12 1.13 1.14 1.16 1.17 1.18 1.19 1.18 1.15 1.15 1.12 1.08 1.02 1.01 1.04 1.05 1.03 1.08 1.16 1.23 1.26 1.19 1.22 1.25 1.26 1.29 1.30 1.26 1.30 1.34 1.08 0.92 0.80 0.65 0.64 0.58 0.53 0.56 0.67